"Data set title: Gaging station water sample data. Usage: Event based table used with water chemistry collection from 01-Oct-2018 to 30-Sep-2019",,,,,,,,,,,,
,,,,,,,,,,,,,
"Site","Date","RecNum","SiteID","Flag_SiteID","LOGGERID","PROGID","VNOTCH_INST_0_0_01","Flag_VNOTCH_INST_0_0_01","SAMPLE_INST_0_0_01","Flag_SAMPLE_INST_0_0_01","STAGE_INST_0_0_01","Flag_STAGE_INST_0_0_01"
"","yyyy-MM-dd HH:mm:ss","count","","none","none","none","none","none","count","none","ft","none"
"nominal","datetime","nominal","data","code","nominal","nominal","data","code","data","code","data","code"
"GSWS10_123",2018-10-01 12:06:00,597,110.00,"",123,21987.0,0,"",36,"",0.0030,""
"GSWS10_123",2018-10-02 01:24:00,598,110.00,"",123,21987.0,0,"",37,"",0.0020,""
"GSWS10_123",2018-10-02 14:42:00,599,110.00,"",123,21987.0,0,"",38,"",0.0020,""
"GSWS10_123",2018-10-03 04:00:00,600,110.00,"",123,21987.0,0,"",39,"",0.0020,""
"GSWS10_123",2018-10-03 07:19:00,601,110.00,"",123,21987.0,0,"",40,"",0.0020,""
"GSWS10_123",2018-10-03 21:43:00,0,110.00,"",123,40042.0,0,"",1,"",0.0010,""
"GSWS10_123",2018-10-04 11:01:00,1,110.00,"",123,40042.0,0,"",2,"",0.0010,""
"GSWS10_123",2018-10-05 00:19:00,2,110.00,"",123,40042.0,0,"",3,"",0.0010,""
"GSWS10_123",2018-10-05 13:37:00,3,110.00,"",123,40042.0,0,"",4,"",0.0030,""
"GSWS10_123",2018-10-06 02:55:00,4,110.00,"",123,40042.0,0,"",5,"",0.0410,""
"GSWS10_123",2018-10-06 16:13:00,5,110.00,"",123,40042.0,0,"",6,"",0.0090,""
"GSWS10_123",2018-10-07 05:31:00,6,110.00,"",123,40042.0,0,"",7,"",0.0050,""
"GSWS10_123",2018-10-07 18:49:00,7,110.00,"",123,40042.0,0,"",8,"",0.0040,""
"GSWS10_123",2018-10-08 08:07:00,8,110.00,"",123,40042.0,0,"",9,"",0.0040,""
"GSWS10_123",2018-10-08 21:25:00,9,110.00,"",123,40042.0,0,"",10,"",0.0040,""
"GSWS10_123",2018-10-09 10:43:00,10,110.00,"",123,40042.0,0,"",11,"",0.0090,""
"GSWS10_123",2018-10-10 00:01:00,11,110.00,"",123,40042.0,0,"",12,"",0.0050,""
"GSWS10_123",2018-10-10 13:19:00,12,110.00,"",123,40042.0,0,"",13,"",0.0040,""
"GSWS10_123",2018-10-11 02:37:00,13,110.00,"",123,40042.0,0,"",14,"",0.0030,""
"GSWS10_123",2018-10-11 15:55:00,14,110.00,"",123,40042.0,0,"",15,"",0.0030,""
"GSWS10_123",2018-10-12 05:13:00,15,110.00,"",123,40042.0,0,"",16,"",0.0030,""
"GSWS10_123",2018-10-12 18:31:00,16,110.00,"",123,40042.0,0,"",17,"",0.0030,""
"GSWS10_123",2018-10-13 07:49:00,17,110.00,"",123,40042.0,0,"",18,"",0.0030,""
"GSWS10_123",2018-10-13 21:07:00,18,110.00,"",123,40042.0,0,"",19,"",0.0030,""
"GSWS10_123",2018-10-14 10:25:00,19,110.00,"",123,40042.0,0,"",20,"",0.0030,""
"GSWS10_123",2018-10-14 23:43:00,20,110.00,"",123,40042.0,0,"",21,"",0.0010,""
"GSWS10_123",2018-10-15 13:01:00,21,110.00,"",123,40042.0,0,"",22,"",0.0010,""
"GSWS10_123",2018-10-16 02:19:00,22,110.00,"",123,40042.0,0,"",23,"",0.0010,""
"GSWS10_123",2018-10-16 15:37:00,23,110.00,"",123,40042.0,0,"",24,"",0.0010,""
"GSWS10_123",2018-10-17 04:55:00,24,110.00,"",123,40042.0,0,"",25,"",0.0010,""
"GSWS10_123",2018-10-17 18:13:00,25,110.00,"",123,40042.0,0,"",26,"",0.0010,""
"GSWS10_123",2018-10-18 07:31:00,26,110.00,"",123,40042.0,0,"",27,"",0.0010,""
"GSWS10_123",2018-10-18 20:49:00,27,110.00,"",123,40042.0,0,"",28,"",0.0010,""
"GSWS10_123",2018-10-19 10:07:00,28,110.00,"",123,40042.0,0,"",29,"",0.0010,""
"GSWS10_123",2018-10-19 23:25:00,29,110.00,"",123,40042.0,0,"",30,"",0.0010,""
"GSWS10_123",2018-10-20 12:43:00,30,110.00,"",123,40042.0,0,"",31,"",0.0010,""
"GSWS10_123",2018-10-21 02:01:00,31,110.00,"",123,40042.0,0,"",32,"",0.0010,""
"GSWS10_123",2018-10-21 15:19:00,32,110.00,"",123,40042.0,0,"",33,"",0.0010,""
"GSWS10_123",2018-10-22 04:37:00,33,110.00,"",123,40042.0,0,"",34,"",0.0010,""
"GSWS10_123",2018-10-22 17:55:00,34,110.00,"",123,40042.0,0,"",35,"",0.0010,""
"GSWS10_123",2018-10-23 07:13:00,35,110.00,"",123,40042.0,0,"",36,"",0.0010,""
"GSWS10_123",2018-10-23 20:31:00,36,110.00,"",123,40042.0,0,"",37,"",0.0010,""
"GSWS10_123",2018-10-24 09:49:00,37,110.00,"",123,40042.0,0,"",38,"",0.0010,""
"GSWS10_123",2018-10-24 17:12:45,38,110.00,"",123,40042.0,0,"",1,"",0.0050,""
"GSWS10_123",2018-10-24 23:07:00,39,110.00,"",123,40042.0,0,"",1,"",0.0010,""
"GSWS10_123",2018-10-25 12:25:00,40,110.00,"",123,40042.0,0,"",2,"",0.0010,""
"GSWS10_123",2018-10-26 01:43:00,41,110.00,"",123,40042.0,0,"",3,"",0.0010,""
"GSWS10_123",2018-10-26 15:01:00,42,110.00,"",123,40042.0,0,"",4,"",0.0070,""
"GSWS10_123",2018-10-27 04:19:00,43,110.00,"",123,40042.0,0,"",5,"",0.0030,""
"GSWS10_123",2018-10-27 17:37:00,44,110.00,"",123,40042.0,0,"",6,"",0.0030,""
"GSWS10_123",2018-10-28 06:55:00,45,110.00,"",123,40042.0,0,"",7,"",0.0160,""
"GSWS10_123",2018-10-28 20:13:00,46,110.00,"",123,40042.0,0,"",8,"",0.0210,""
"GSWS10_123",2018-10-29 09:31:00,47,110.00,"",123,40042.0,0,"",9,"",0.0420,""
"GSWS10_123",2018-10-29 22:49:00,48,110.00,"",123,40042.0,0,"",10,"",0.0230,""
"GSWS10_123",2018-10-30 12:07:00,49,110.00,"",123,40042.0,0,"",11,"",0.0110,""
"GSWS10_123",2018-10-31 01:25:00,50,110.00,"",123,40042.0,0,"",12,"",0.0080,""
"GSWS10_123",2018-10-31 14:43:00,51,110.00,"",123,40042.0,0,"",13,"",0.0400,""
"GSWS10_123",2018-11-01 04:01:00,52,110.00,"",123,40042.0,0,"",14,"",0.0380,""
"GSWS10_123",2018-11-01 17:19:00,53,110.00,"",123,40042.0,0,"",15,"",0.0230,""
"GSWS10_123",2018-11-02 06:37:00,54,110.00,"",123,40042.0,0,"",16,"",0.0250,""
"GSWS10_123",2018-11-02 19:55:00,55,110.00,"",123,40042.0,0,"",17,"",0.0260,""
"GSWS10_123",2018-11-03 09:13:00,56,110.00,"",123,40042.0,0,"",18,"",0.0160,""
"GSWS10_123",2018-11-03 22:31:00,57,110.00,"",123,40042.0,0,"",19,"",0.0120,""
"GSWS10_123",2018-11-04 11:49:00,58,110.00,"",123,40042.0,0,"",20,"",0.0810,""
"GSWS10_123",2018-11-05 01:07:00,59,110.00,"",123,40042.0,0,"",21,"",0.0270,""
"GSWS10_123",2018-11-05 14:25:00,60,110.00,"",123,40042.0,0,"",22,"",0.0180,""
"GSWS10_123",2018-11-06 03:43:00,61,110.00,"",123,40042.0,0,"",23,"",0.0160,""
"GSWS10_123",2018-11-06 17:01:00,62,110.00,"",123,40042.0,0,"",24,"",0.0140,""
"GSWS10_123",2018-11-07 06:19:00,63,110.00,"",123,40042.0,0,"",25,"",0.0120,""
"GSWS10_123",2018-11-07 19:37:00,64,110.00,"",123,40042.0,0,"",26,"",0.0100,""
"GSWS10_123",2018-11-08 08:55:00,65,110.00,"",123,40042.0,0,"",27,"",0.0080,""
"GSWS10_123",2018-11-08 22:13:00,66,110.00,"",123,40042.0,0,"",28,"",0.0080,""
"GSWS10_123",2018-11-09 11:31:00,67,110.00,"",123,40042.0,0,"",29,"",0.0070,""
"GSWS10_123",2018-11-10 13:43:00,68,110.00,"",123,40042.0,0,"",30,"",0.0050,""
"GSWS10_123",2018-11-10 14:07:00,69,110.00,"",123,40042.0,0,"",31,"",0.0050,""
"GSWS10_123",2018-11-11 03:25:00,70,110.00,"",123,40042.0,0,"",32,"",0.0050,""
"GSWS10_123",2018-11-11 16:43:00,71,110.00,"",123,40042.0,0,"",33,"",0.0050,""
"GSWS10_123",2018-11-12 06:01:00,72,110.00,"",123,40042.0,0,"",34,"",0.0050,""
"GSWS10_123",2018-11-12 19:19:00,73,110.00,"",123,40042.0,0,"",35,"",0.0040,""
"GSWS10_123",2018-11-13 08:37:00,74,110.00,"",123,40042.0,0,"",36,"",0.0040,""
"GSWS10_123",2018-11-13 13:21:30,75,110.00,"",123,40042.0,0,"",37,"",0.0030,""
"GSWS10_123",2018-11-13 21:55:00,76,110.00,"",123,40042.0,0,"",1,"",0.0010,""
"GSWS10_123",2018-11-14 11:13:00,77,110.00,"",123,40042.0,0,"",2,"",0.0010,""
"GSWS10_123",2018-11-15 00:31:00,78,110.00,"",123,40042.0,0,"",3,"",0.0010,""
"GSWS10_123",2018-11-15 13:49:00,79,110.00,"",123,40042.0,0,"",4,"",0.0010,""
"GSWS10_123",2018-11-16 03:07:00,80,110.00,"",123,40042.0,0,"",5,"",0.0010,""
"GSWS10_123",2018-11-16 16:25:00,81,110.00,"",123,40042.0,0,"",6,"",0.0010,""
"GSWS10_123",2018-11-17 05:43:00,82,110.00,"",123,40042.0,0,"",7,"",0.0010,""
"GSWS10_123",2018-11-17 19:01:00,83,110.00,"",123,40042.0,0,"",8,"",0.0010,""
"GSWS10_123",2018-11-18 08:19:00,84,110.00,"",123,40042.0,0,"",9,"",0.0010,""
"GSWS10_123",2018-11-18 21:37:00,85,110.00,"",123,40042.0,0,"",10,"",0.0010,""
"GSWS10_123",2018-11-19 10:55:00,86,110.00,"",123,40042.0,0,"",11,"",0.0010,""
"GSWS10_123",2018-11-20 00:13:00,87,110.00,"",123,40042.0,0,"",12,"",0.0010,""
"GSWS10_123",2018-11-20 13:31:00,88,110.00,"",123,40042.0,0,"",13,"",0.0010,""
"GSWS10_123",2018-11-21 02:49:00,89,110.00,"",123,40042.0,0,"",14,"",0.0010,""
"GSWS10_123",2018-11-21 16:07:00,90,110.00,"",123,40042.0,0,"",15,"",0.0040,""
"GSWS10_123",2018-11-22 05:25:00,91,110.00,"",123,40042.0,0,"",16,"",0.0070,""
"GSWS10_123",2018-11-22 18:43:00,92,110.00,"",123,40042.0,0,"",17,"",0.0440,""
"GSWS10_123",2018-11-23 08:01:00,93,110.00,"",123,40042.0,0,"",18,"",0.0490,""
"GSWS10_123",2018-11-23 21:19:00,94,110.00,"",123,40042.0,0,"",19,"",0.1430,""
"GSWS10_123",2018-11-24 10:37:00,95,110.00,"",123,40042.0,0,"",20,"",0.0510,""
"GSWS10_123",2018-11-24 23:55:00,96,110.00,"",123,40042.0,0,"",21,"",0.0300,""
"GSWS10_123",2018-11-25 13:13:00,97,110.00,"",123,40042.0,0,"",22,"",0.0200,""
"GSWS10_123",2018-11-26 02:31:00,98,110.00,"",123,40042.0,0,"",23,"",0.0170,""
"GSWS10_123",2018-11-26 15:49:00,99,110.00,"",123,40042.0,0,"",24,"",0.0140,""
"GSWS10_123",2018-11-27 05:07:00,100,110.00,"",123,40042.0,0,"",25,"",0.0400,""
"GSWS10_123",2018-11-27 11:45:00,101,110.00,"",123,40042.0,0,"",26,"",0.1800,""
"GSWS10_123",2018-11-27 20:25:30,102,110.00,"",123,40042.0,0,"",27,"",0.1600,""
"GSWS10_123",2018-11-28 09:43:30,103,110.00,"",123,40042.0,0,"",28,"",0.1110,""
"GSWS10_123",2018-11-28 23:01:30,104,110.00,"",123,40042.0,0,"",29,"",0.0700,""
"GSWS10_123",2018-11-29 12:19:30,105,110.00,"",123,40042.0,0,"",30,"",0.0430,""
"GSWS10_123",2018-11-30 01:37:30,106,110.00,"",123,40042.0,0,"",31,"",0.0350,""
"GSWS10_123",2018-11-30 14:55:30,107,110.00,"",123,40042.0,0,"",32,"",0.0520,""
"GSWS10_123",2018-12-01 04:13:30,108,110.00,"",123,40042.0,0,"",33,"",0.0920,""
"GSWS10_123",2018-12-01 17:31:30,109,110.00,"",123,40042.0,0,"",34,"",0.0740,""
"GSWS10_123",2018-12-02 06:49:30,110,110.00,"",123,40042.0,0,"",35,"",0.0580,""
"GSWS10_123",2018-12-02 20:07:30,111,110.00,"",123,40042.0,0,"",36,"",0.0460,""
"GSWS10_123",2018-12-03 09:25:30,112,110.00,"",123,40042.0,0,"",37,"",0.0370,""
"GSWS10_123",2018-12-03 22:43:30,113,110.00,"",123,40042.0,0,"",38,"",0.0290,""
"GSWS10_123",2018-12-04 12:01:30,114,110.00,"",123,40042.0,0,"",39,"",0.0250,""
"GSWS10_123",2018-12-05 01:19:30,115,110.00,"",123,40042.0,0,"",1,"",0.0210,""
"GSWS10_123",2018-12-05 14:37:30,116,110.00,"",123,40042.0,0,"",2,"",0.0180,""
"GSWS10_123",2018-12-06 03:55:30,117,110.00,"",123,40042.0,0,"",3,"",0.0160,""
"GSWS10_123",2018-12-06 17:13:30,118,110.00,"",123,40042.0,0,"",4,"",0.0150,""
"GSWS10_123",2018-12-07 19:49:30,119,110.00,"",123,40042.0,0,"",5,"",0.0120,""
"GSWS10_123",2018-12-08 09:07:30,120,110.00,"",123,40042.0,0,"",6,"",0.0120,""
"GSWS10_123",2018-12-08 22:25:30,121,110.00,"",123,40042.0,0,"",7,"",0.0120,""
"GSWS10_123",2018-12-09 11:43:30,122,110.00,"",123,40042.0,0,"",8,"",0.0120,""
"GSWS10_123",2018-12-10 01:01:30,123,110.00,"",123,40042.0,0,"",9,"",0.0360,""
"GSWS10_123",2018-12-10 14:19:30,124,110.00,"",123,40042.0,0,"",10,"",0.0460,""
"GSWS10_123",2018-12-11 03:37:30,125,110.00,"",123,40042.0,0,"",11,"",0.0400,""
"GSWS10_123",2018-12-11 16:55:30,126,110.00,"",123,40042.0,0,"",12,"",0.0740,""
"GSWS10_123",2018-12-11 21:21:30,127,110.00,"",123,40042.0,0,"",13,"",0.2850,""
"GSWS10_123",2018-12-12 03:59:30,128,110.00,"",123,40042.0,0,"",14,"",0.2100,""
"GSWS10_123",2018-12-12 17:17:30,129,110.00,"",123,40042.0,0,"",15,"",0.0970,""
"GSWS10_123",2018-12-13 06:35:30,130,110.00,"",123,40042.0,0,"",16,"",0.0590,""
"GSWS10_123",2018-12-13 19:53:30,131,110.00,"",123,40042.0,0,"",17,"",0.0440,""
"GSWS10_123",2018-12-14 09:11:30,132,110.00,"",123,40042.0,0,"",18,"",0.0380,""
"GSWS10_123",2018-12-14 22:29:30,133,110.00,"",123,40042.0,0,"",19,"",0.0450,""
"GSWS10_123",2018-12-15 11:47:30,134,110.00,"",123,40042.0,0,"",20,"",0.0440,""
"GSWS10_123",2018-12-16 01:05:30,135,110.00,"",123,40042.0,0,"",21,"",0.0400,""
"GSWS10_123",2018-12-16 14:23:30,136,110.00,"",123,40042.0,0,"",22,"",0.0420,""
"GSWS10_123",2018-12-17 03:41:30,137,110.00,"",123,40042.0,0,"",23,"",0.0450,""
"GSWS10_123",2018-12-17 16:59:30,138,110.00,"",123,40042.0,0,"",24,"",0.0450,""
"GSWS10_123",2018-12-18 04:43:45,139,110.00,"",123,40042.0,0,"",25,"",0.1600,""
"GSWS10_123",2018-12-18 08:36:45,140,110.00,"",123,40042.0,0,"",26,"",0.3370,""
"GSWS10_123",2018-12-18 11:18:45,141,110.00,"",123,40042.0,0,"",27,"",0.4730,""
"GSWS10_123",2018-12-18 14:40:45,142,110.00,"",123,40042.0,0,"",28,"",0.3500,""
"GSWS10_123",2018-12-18 21:18:45,143,110.00,"",123,40042.0,0,"",29,"",0.2230,""
"GSWS10_123",2018-12-19 03:56:45,144,110.00,"",123,40042.0,0,"",30,"",0.1720,""
"GSWS10_123",2018-12-19 17:14:45,145,110.00,"",123,40042.0,0,"",31,"",0.1150,""
"GSWS10_123",2018-12-20 06:32:45,146,110.00,"",123,40042.0,0,"",32,"",0.0850,""
"GSWS10_123",2018-12-20 15:48:30,147,110.00,"",123,40042.0,0,"",33,"",0.1610,""
"GSWS10_123",2018-12-21 05:06:30,148,110.00,"",123,40042.0,0,"",34,"",0.1390,""
"GSWS10_123",2018-12-21 18:24:30,149,110.00,"",123,40042.0,0,"",35,"",0.1020,""
"GSWS10_123",2018-12-22 07:42:30,150,110.00,"",123,40042.0,0,"",36,"",0.0790,""
"GSWS10_123",2018-12-22 21:00:30,151,110.00,"",123,40042.0,0,"",37,"",0.0690,""
"GSWS10_123",2018-12-23 10:18:30,152,110.00,"",123,40042.0,0,"",38,"",0.1260,""
"GSWS10_123",2018-12-23 16:56:30,153,110.00,"",123,40042.0,0,"",39,"",0.2520,""
"GSWS10_123",2018-12-23 20:45:00,154,110.00,"",123,40042.0,0,"",40,"",0.3360,""
"GSWS10_123",2018-12-24 00:07:00,155,110.00,"",123,40042.0,0,"",41,"",0.4060,""
"GSWS10_123",2018-12-24 02:49:00,156,110.00,"",123,40042.0,0,"",42,"",0.4220,""
"GSWS10_123",2018-12-24 05:31:00,157,110.00,"",123,40042.0,0,"",43,"",0.4120,""
"GSWS10_123",2018-12-24 08:53:00,158,110.00,"",123,40042.0,0,"",44,"",0.3700,""
"GSWS10_123",2018-12-24 13:19:00,159,110.00,"",123,40042.0,0,"",45,"",0.3100,""
"GSWS10_123",2018-12-24 17:45:00,160,110.00,"",123,40042.0,0,"",46,"",0.2550,""
"GSWS10_123",2018-12-25 00:23:00,161,110.00,"",123,40042.0,0,"",47,"",0.2020,""
"GSWS10_123",2018-12-25 07:01:00,162,110.00,"",123,40042.0,0,"",48,"",0.1670,""
"GSWS10_123",2018-12-25 20:19:00,163,110.00,"",123,40042.0,0,"",49,"",0.1230,""
"GSWS10_123",2018-12-26 09:37:00,164,110.00,"",123,40042.0,0,"",50,"",0.0980,""
"GSWS10_123",2018-12-26 22:55:00,165,110.00,"",123,40042.0,0,"",51,"",0.1240,""
"GSWS10_123",2018-12-27 12:13:00,166,110.00,"",123,40042.0,0,"",52,"",0.1300,""
"GSWS10_123",2018-12-28 01:31:00,167,110.00,"",123,40042.0,0,"",53,"",0.1180,""
"GSWS10_123",2018-12-28 14:49:00,168,110.00,"",123,40042.0,0,"",54,"",0.1000,""
"GSWS10_123",2018-12-28 17:09:15,169,110.00,"",123,40042.0,0,"",55,"",0.0970,""
"GSWS10_123",2018-12-28 17:18:30,170,110.00,"",123,40042.0,0,"",56,"",0.0970,""
"GSWS10_123",2018-12-29 04:07:00,171,110.00,"",123,40042.0,0,"",1,"",0.0850,""
"GSWS10_123",2018-12-29 17:25:00,172,110.00,"",123,40042.0,0,"",2,"",0.0740,""
"GSWS10_123",2018-12-30 00:03:00,173,110.00,"",123,40042.0,0,"",3,"",0.1760,""
"GSWS10_123",2018-12-30 06:41:00,174,110.00,"",123,40042.0,0,"",4,"",0.1860,""
"GSWS10_123",2018-12-30 13:19:00,175,110.00,"",123,40042.0,0,"",5,"",0.1700,""
"GSWS10_123",2018-12-31 02:37:00,176,110.00,"",123,40042.0,0,"",6,"",0.1400,""
"GSWS10_123",2018-12-31 15:55:00,177,110.00,"",123,40042.0,0,"",7,"",0.1130,""
"GSWS10_123",2019-01-01 05:13:00,178,110.00,"",123,40042.0,0,"",8,"",0.0920,""
"GSWS10_123",2019-01-01 18:31:00,179,110.00,"",123,40042.0,0,"",9,"",0.0790,""
"GSWS10_123",2019-01-02 07:49:00,180,110.00,"",123,40042.0,0,"",10,"",0.0700,""
"GSWS10_123",2019-01-02 21:07:00,181,110.00,"",123,40042.0,0,"",11,"",0.0620,""
"GSWS10_123",2019-01-03 10:25:00,182,110.00,"",123,40042.0,0,"",12,"",0.0550,""
"GSWS10_123",2019-01-03 23:43:00,183,110.00,"",123,40042.0,0,"",13,"",0.0520,""
"GSWS10_123",2019-01-04 13:01:00,184,110.00,"",123,40042.0,0,"",14,"",0.0480,""
"GSWS10_123",2019-01-05 02:19:00,185,110.00,"",123,40042.0,0,"",15,"",0.0460,""
"GSWS10_123",2019-01-05 15:37:00,186,110.00,"",123,40042.0,0,"",16,"",0.0450,""
"GSWS10_123",2019-01-06 04:55:00,187,110.00,"",123,40042.0,0,"",17,"",0.0680,""
"GSWS10_123",2019-01-06 18:13:00,188,110.00,"",123,40042.0,0,"",18,"",0.0790,""
"GSWS10_123",2019-01-07 07:31:00,189,110.00,"",123,40042.0,0,"",19,"",0.0790,""
"GSWS10_123",2019-01-07 20:49:00,190,110.00,"",123,40042.0,0,"",20,"",0.0740,""
"GSWS10_123",2019-01-08 10:07:00,191,110.00,"",123,40042.0,0,"",21,"",0.0820,""
"GSWS10_123",2019-01-08 23:25:00,192,110.00,"",123,40042.0,0,"",22,"",0.0840,""
"GSWS10_123",2019-01-09 12:43:00,193,110.00,"",123,40042.0,0,"",23,"",0.0790,""
"GSWS10_123",2019-01-10 02:01:00,194,110.00,"",123,40042.0,0,"",24,"",0.0810,""
"GSWS10_123",2019-01-10 15:19:00,195,110.00,"",123,40042.0,0,"",25,"",0.0740,""
"GSWS10_123",2019-01-11 04:37:00,196,110.00,"",123,40042.0,0,"",26,"",0.0700,""
"GSWS10_123",2019-01-11 17:55:00,197,110.00,"",123,40042.0,0,"",27,"",0.0650,""
"GSWS10_123",2019-01-12 07:13:00,198,110.00,"",123,40042.0,0,"",28,"",0.0590,""
"GSWS10_123",2019-01-12 20:31:00,199,110.00,"",123,40042.0,0,"",29,"",0.0540,""
"GSWS10_123",2019-01-13 09:49:00,200,110.00,"",123,40042.0,0,"",30,"",0.0490,""
"GSWS10_123",2019-01-13 23:07:00,201,110.00,"",123,40042.0,0,"",31,"",0.0470,""
"GSWS10_123",2019-01-14 12:25:00,202,110.00,"",123,40042.0,0,"",32,"",0.0450,""
"GSWS10_123",2019-01-15 01:43:00,203,110.00,"",123,40042.0,0,"",33,"",0.0440,""
"GSWS10_123",2019-01-15 15:01:00,204,110.00,"",123,40042.0,0,"",34,"",0.0430,""
"GSWS10_123",2019-01-16 04:19:00,205,110.00,"",123,40042.0,0,"",35,"",0.0420,""
"GSWS10_123",2019-01-16 16:01:30,206,110.00,"",123,40042.0,0,"",36,"",0.0400,""
"GSWS10_123",2019-01-16 17:37:00,207,110.00,"",123,40042.0,0,"",1,"",0.0380,""
"GSWS10_123",2019-01-17 06:55:00,208,110.00,"",123,40042.0,0,"",2,"",0.0380,""
"GSWS10_123",2019-01-17 20:13:00,209,110.00,"",123,40042.0,0,"",3,"",0.0510,""
"GSWS10_123",2019-01-18 09:31:00,210,110.00,"",123,40042.0,0,"",4,"",0.0410,""
"GSWS10_123",2019-01-18 17:27:45,211,110.00,"",123,40042.0,0,"",5,"",0.1610,""
"GSWS10_123",2019-01-18 20:49:45,212,110.00,"",123,40042.0,0,"",6,"",0.3370,""
"GSWS10_123",2019-01-18 23:31:45,213,110.00,"",123,40042.0,0,"",7,"",0.4730,""
"GSWS10_123",2019-01-19 01:45:45,214,110.00,"",123,40042.0,0,"",8,"",0.5020,""
"GSWS10_123",2019-01-19 03:59:45,215,110.00,"",123,40042.0,0,"",9,"",0.5350,""
"GSWS10_123",2019-01-19 05:53:45,216,110.00,"",123,40042.0,0,"",10,"",0.5650,""
"GSWS10_123",2019-01-19 07:47:45,217,110.00,"",123,40042.0,0,"",11,"",0.5550,""
"GSWS10_123",2019-01-19 10:01:45,218,110.00,"",123,40042.0,0,"",12,"",0.5140,""
"GSWS10_123",2019-01-19 12:43:45,219,110.00,"",123,40042.0,0,"",13,"",0.4580,""
"GSWS10_123",2019-01-19 15:25:45,220,110.00,"",123,40042.0,0,"",14,"",0.4180,""
"GSWS10_123",2019-01-19 18:47:45,221,110.00,"",123,40042.0,0,"",15,"",0.3730,""
"GSWS10_123",2019-01-19 23:13:45,222,110.00,"",123,40042.0,0,"",16,"",0.3160,""
"GSWS10_123",2019-01-20 03:39:45,223,110.00,"",123,40042.0,0,"",17,"",0.2860,""
"GSWS10_123",2019-01-20 08:05:45,224,110.00,"",123,40042.0,0,"",18,"",0.3090,""
"GSWS10_123",2019-01-20 12:31:45,225,110.00,"",123,40042.0,0,"",19,"",0.3070,""
"GSWS10_123",2019-01-20 16:57:45,226,110.00,"",123,40042.0,0,"",20,"",0.2910,""
"GSWS10_123",2019-01-20 21:23:45,227,110.00,"",123,40042.0,0,"",21,"",0.2660,""
"GSWS10_123",2019-01-21 04:01:45,228,110.00,"",123,40042.0,0,"",22,"",0.2220,""
"GSWS10_123",2019-01-21 10:39:45,229,110.00,"",123,40042.0,0,"",23,"",0.1870,""
"GSWS10_123",2019-01-21 17:17:45,230,110.00,"",123,40042.0,0,"",24,"",0.1610,""
"GSWS10_123",2019-01-22 06:35:45,231,110.00,"",123,40042.0,0,"",25,"",0.1280,""
"GSWS10_123",2019-01-22 19:53:45,232,110.00,"",123,40042.0,0,"",26,"",0.1170,""
"GSWS10_123",2019-01-23 02:31:45,233,110.00,"",123,40042.0,0,"",27,"",0.1720,""
"GSWS10_123",2019-01-23 09:09:45,234,110.00,"",123,40042.0,0,"",28,"",0.2460,""
"GSWS10_123",2019-01-23 15:47:45,235,110.00,"",123,40042.0,0,"",29,"",0.2440,""
"GSWS10_123",2019-01-23 22:25:45,236,110.00,"",123,40042.0,0,"",30,"",0.2250,""
"GSWS10_123",2019-01-24 05:03:45,237,110.00,"",123,40042.0,0,"",31,"",0.1980,""
"GSWS10_123",2019-01-24 11:41:45,238,110.00,"",123,40042.0,0,"",32,"",0.1740,""
"GSWS10_123",2019-01-25 00:59:45,239,110.00,"",123,40042.0,0,"",33,"",0.1390,""
"GSWS10_123",2019-01-25 14:17:45,240,110.00,"",123,40042.0,0,"",34,"",0.1170,""
"GSWS10_123",2019-01-26 03:35:45,241,110.00,"",123,40042.0,0,"",35,"",0.1000,""
"GSWS10_123",2019-01-26 16:53:45,242,110.00,"",123,40042.0,0,"",36,"",0.0890,""
"GSWS10_123",2019-01-27 06:11:45,243,110.00,"",123,40042.0,0,"",37,"",0.0810,""
"GSWS10_123",2019-01-27 19:29:45,244,110.00,"",123,40042.0,0,"",38,"",0.0740,""
"GSWS10_123",2019-01-28 08:47:45,245,110.00,"",123,40042.0,0,"",39,"",0.0680,""
"GSWS10_123",2019-01-28 22:05:45,246,110.00,"",123,40042.0,0,"",40,"",0.0640,""
"GSWS10_123",2019-01-29 11:23:45,247,110.00,"",123,40042.0,0,"",41,"",0.0590,""
"GSWS10_123",2019-01-30 00:41:45,248,110.00,"",123,40042.0,0,"",42,"",0.0550,""
"GSWS10_123",2019-01-30 13:59:45,249,110.00,"",123,40042.0,0,"",43,"",0.0530,""
"GSWS10_123",2019-01-31 03:17:45,250,110.00,"",123,40042.0,0,"",44,"",0.0500,""
"GSWS10_123",2019-01-31 16:35:45,251,110.00,"",123,40042.0,0,"",45,"",0.0480,""
"GSWS10_123",2019-02-01 05:53:45,252,110.00,"",123,40042.0,0,"",46,"",0.0470,""
"GSWS10_123",2019-02-01 19:11:45,253,110.00,"",123,40042.0,0,"",47,"",0.0460,""
"GSWS10_123",2019-02-02 08:29:45,254,110.00,"",123,40042.0,0,"",48,"",0.0460,""
"GSWS10_123",2019-02-02 21:47:45,255,110.00,"",123,40042.0,0,"",49,"",0.0460,""
"GSWS10_123",2019-02-03 11:05:45,256,110.00,"",123,40042.0,0,"",50,"",0.0820,""
"GSWS10_123",2019-02-04 00:23:45,257,110.00,"",123,40042.0,0,"",51,"",0.0720,""
"GSWS10_123",2019-02-04 13:41:45,258,110.00,"",123,40042.0,0,"",52,"",0.0660,""
"GSWS10_123",2019-02-05 02:59:45,259,110.00,"",123,40042.0,0,"",53,"",0.0610,""
"GSWS10_123",2019-02-05 16:17:45,260,110.00,"",123,40042.0,0,"",54,"",0.0560,""
"GSWS10_123",2019-02-06 05:35:45,261,110.00,"",123,40042.0,0,"",55,"",0.0530,""
"GSWS10_123",2019-02-06 17:56:00,262,110.00,"",123,40042.0,0,"",56,"",0.0500,""
"GSWS10_123",2019-02-06 18:53:45,263,110.00,"",123,40042.0,0,"",1,"",0.0490,""
"GSWS10_123",2019-02-07 08:11:45,264,110.00,"",123,40042.0,0,"",2,"",0.0480,""
"GSWS10_123",2019-02-07 21:29:45,265,110.00,"",123,40042.0,0,"",3,"",0.0470,""
"GSWS10_123",2019-02-08 10:47:45,266,110.00,"",123,40042.0,0,"",4,"",0.0470,""
"GSWS10_123",2019-02-09 00:05:45,267,110.00,"",123,40042.0,0,"",5,"",0.0480,""
"GSWS10_123",2019-02-09 13:23:45,268,110.00,"",123,40042.0,0,"",6,"",0.0530,""
"GSWS10_123",2019-02-10 02:41:45,269,110.00,"",123,40042.0,0,"",7,"",0.0600,""
"GSWS10_123",2019-02-10 15:59:45,270,110.00,"",123,40042.0,0,"",8,"",0.0540,""
"GSWS10_123",2019-02-11 05:17:45,271,110.00,"",123,40042.0,0,"",9,"",0.0550,""
"GSWS10_123",2019-02-11 18:35:45,272,110.00,"",123,40042.0,0,"",10,"",0.1300,""
"GSWS10_123",2019-02-12 07:53:45,273,110.00,"",123,40042.0,0,"",11,"",0.1150,""
"GSWS10_123",2019-02-12 21:11:45,274,110.00,"",123,40042.0,0,"",12,"",0.1410,""
"GSWS10_123",2019-02-13 10:29:45,275,110.00,"",123,40042.0,0,"",13,"",0.1550,""
"GSWS10_123",2019-02-13 17:08:00,276,110.00,"",123,40042.0,0,"",14,"",0.1890,""
"GSWS10_123",2019-02-13 23:46:00,277,110.00,"",123,40042.0,0,"",15,"",0.2000,""
"GSWS10_123",2019-02-14 06:24:00,278,110.00,"",123,40042.0,0,"",16,"",0.1990,""
"GSWS10_123",2019-02-14 13:02:00,279,110.00,"",123,40042.0,0,"",17,"",0.2260,""
"GSWS10_123",2019-02-14 17:28:00,280,110.00,"",123,40042.0,0,"",18,"",0.2660,""
"GSWS10_123",2019-02-14 21:54:00,281,110.00,"",123,40042.0,0,"",19,"",0.2730,""
"GSWS10_123",2019-02-15 02:20:00,282,110.00,"",123,40042.0,0,"",20,"",0.2650,""
"GSWS10_123",2019-02-15 08:58:00,283,110.00,"",123,40042.0,0,"",21,"",0.2290,""
"GSWS10_123",2019-02-15 15:36:00,284,110.00,"",123,40042.0,0,"",22,"",0.1970,""
"GSWS10_123",2019-02-15 22:14:00,285,110.00,"",123,40042.0,0,"",23,"",0.1740,""